Location: Namasale
(1.5000°N, 32.6167°E)
Time: 20:43:24
(UTC+00:00)

SR - Pass Details

Date: 20 April 2021
Orbit: 573 x 882 km, 66.7° (Epoch: 13 May)

Event Time Altitude Azimuth Distance (km) Brightness Sun altitude
Rises 03:00:28 0° 179° (S) 3,017 ? -11.5°
Reaches altitude 10° 03:02:59 10° 166° (SSE) 2,153 ? -10.8°
Maximum altitude 03:07:09 28° 108° (ESE) 1,365 ? -9.8°
Drops below altitude 10° 03:11:38 10° 50° (NE) 2,323 ? -8.7°
Sets 03:14:27 0° 39° (NE) 3,302 ? -8.0°
